EST,Max TemperatureF,Mean TemperatureF,Min TemperatureF,Max Dew PointF,MeanDew PointF,Min DewpointF,Max Humidity, Mean Humidity, Min Humidity, Max Sea Level PressureIn, Mean Sea Level PressureIn, Min Sea Level PressureIn, Max VisibilityMiles, Mean VisibilityMiles, Min VisibilityMiles, Max Wind SpeedMPH, Mean Wind SpeedMPH, Max Gust SpeedMPH,PrecipitationIn, CloudCover, Events, WindDirDegrees
2012-11-1,48,44,41,37,32,27,87,65,46,29.77,29.69,29.64,10,10,7,17,11,26,0.00,7,,294
2012-11-2,42,40,37,30,28,27,75,62,53,30.05,29.91,29.77,10,10,10,16,9,23,0.00,8,,316
2012-11-3,46,39,32,30,28,27,87,67,49,30.17,30.13,30.05,10,10,10,10,7,,0.00,4,,337
2012-11-4,41,36,32,28,26,25,80,66,56,30.19,30.16,30.15,10,10,10,10,5,,0.00,7,,340
2012-11-5,42,36,30,28,26,23,86,66,46,30.21,30.17,30.15,10,10,10,7,2,,0.00,7,,57
2012-11-6,39,36,33,30,28,25,81,71,65,30.15,30.06,29.97,10,10,10,10,4,,0.00,6,,67
2012-11-7,48,40,32,36,30,25,87,71,43,30.13,30.04,29.96,10,10,10,12,8,10,0.00,1,,34
2012-11-8,46,36,26,37,31,25,93,80,53,30.21,30.16,30.13,10,9,5,9,3,,0.00,0,,225
2012-11-9,51,42,33,45,37,30,93,81,67,30.21,30.14,30.09,10,5,1,10,3,,0.03,5,Rain,172
2012-11-10,57,52,46,46,45,43,93,79,63,30.14,30.09,30.03,10,8,5,18,6,23,0.01,5,Rain,153
2012-11-11,57,52,46,46,43,39,87,72,54,30.15,30.08,29.99,10,10,10,18,10,28,0.00,0,,174
2012-11-12,57,46,35,52,39,23,94,78,60,30.26,30.03,29.90,10,10,4,21,11,28,0.35,7,Rain,225
2012-11-13,35,32,30,25,20,18,65,57,48,30.54,30.42,30.27,10,10,10,12,7,16,0.00,8,,288
2012-11-14,39,32,24,30,24,19,86,70,52,30.58,30.51,30.41,10,10,10,6,1,,0.00,4,,56
2012-11-15,46,39,32,34,31,28,87,75,53,30.41,30.36,30.32,10,10,7,7,2,,0.00,3,,53
2012-11-16,50,38,26,36,30,25,93,76,43,30.50,30.43,30.35,10,8,3,8,1,,0.00,0,,180
2012-11-17,48,38,28,41,34,25,93,83,57,30.61,30.55,30.50,10,4,0,7,1,,0.00,2,Fog,126
2012-11-18,50,42,33,43,36,30,93,85,66,30.54,30.47,30.41,10,5,0,7,2,,0.00,3,Fog-Snow,99
2012-11-19,48,38,28,43,35,27,93,86,71,30.40,30.31,30.18,10,6,0,7,0,,0.00,1,Fog,175
2012-11-20,50,44,37,43,40,36,93,86,71,30.17,30.12,30.07,10,6,0,6,0,,0.01,5,Fog-Rain,182
2012-11-21,51,42,33,45,40,32,93,86,62,30.23,30.18,30.14,10,5,0,6,1,,0.00,2,Fog,164
2012-11-22,57,49,41,46,43,39,93,83,63,30.16,30.04,29.84,10,5,1,15,5,,0.02,2,Rain,186
2012-11-23,53,43,33,48,33,23,88,73,61,29.99,29.84,29.71,10,10,4,24,14,32,0.09,7,Rain-Snow,248
2012-11-24,35,32,30,21,18,16,64,56,48,30.09,30.05,30.00,10,10,10,17,12,24,0.00,8,,288
2012-11-25,39,34,28,27,24,19,86,66,56,30.03,29.91,29.82,10,10,2,15,8,20,0.00,7,Snow,247
2012-11-26,39,34,30,27,23,18,86,64,52,30.28,30.15,30.00,10,10,10,9,4,,0.00,6,,296
2012-11-27,33,28,24,21,18,14,74,61,44,30.35,30.29,30.24,10,10,10,8,4,,0.00,1,,273
2012-11-28,41,34,28,23,20,18,75,61,45,30.31,30.26,30.20,10,10,10,16,7,23,0.00,3,,250
2012-11-29,48,39,30,36,27,21,87,67,43,30.30,30.25,30.19,10,10,7,14,6,20,0.00,1,,220
2012-11-30,44,40,35,37,34,30,87,78,61,30.25,30.19,30.13,10,9,7,12,3,16,0.00,6,,103